Location: Burgfried
(48.5167°N, 14.3000°E)
Time: 17:36:08
(UTC+00:00)

Daily predictions for brighter satellites

Satellite Brightness Start Highest point End
(mag) Time Altitude Azimuth Time Altitude Azimuth Time Altitude Azimuth
SPOT 3 Rocket 3.7 19:43:18 10° SSE 19:48:26 66° ENE 19:53:36 10° N
Cosmos 2251 Rocket 3.7 19:44:00 10° NNW 19:49:22 84° WSW 19:54:44 10° SSE
ATLAS 2AS CENTAUR R/B 3.6 19:42:28 10° NW 19:49:24 44° NE 19:55:52 10° ESE
Cosmos 1674 Rocket 4.2 19:45:51 10° SSW 19:50:08 59° WNW 19:54:29 10° N
ARIANE 5 R/B 4.2 19:47:04 10° ESE 19:50:37 23° ENE 19:54:09 10° N
Lacrosse 5 rocket 2.4 19:47:17 10° NW 19:50:50 37° NNE 19:54:34 10° E
Cosmos 1656 Rocket 4.3 19:49:24 10° NW 19:54:41 52° WSW 20:00:00 10° S
Cosmos 1238 Rocket 4.4 19:49:43 10° NNW 19:54:41 54° W 20:00:28 10° S
CZ-4B R/B 1.2 19:52:08 10° N 19:55:02 75° WNW 19:57:53 10° SSW
NOSS 3-4 (A) 4.0 19:48:17 10° NW 19:55:14 79° SW 20:03:06 10° SSE
NOSS 3-4 (C) 4.0 19:48:23 10° NW 19:55:19 80° SW 20:03:10 10° SSE
Cosmos 1553 Rocket 4.4 19:51:39 10° SSW 19:57:58 71° W 20:04:25 10° N
USA 234 3.8 19:54:01 10° E 20:00:25 59° NNE 20:06:51 10° NW
Cosmos 1190 Rocket 4.4 19:56:53 10° NNW 20:02:08 54° ENE 20:07:19 10° SE
GENESIS II 4.3 20:00:48 10° NW 20:04:53 86° NE 20:08:51 10° SE
Meteor 2-10 Rocket 3.6 20:02:14 10° NNW 20:07:22 80° W 20:12:21 10° S
Okean 1 Rocket 4.0 20:03:33 10° NNW 20:07:52 48° W 20:12:10 10° SSW
Cosmos 407 Rocket 3.5 20:04:11 10° NNW 20:09:26 86° ENE 20:14:34 10° SSE
APEX 4.2 20:04:46 10° SSW 20:10:44 83° WNW 20:15:43 10° NNE
SL-14 R/B 4.3 20:07:23 10° SSW 20:11:08 47° WNW 20:14:56 10° N
S3M 4.1 20:05:23 10° S 20:11:37 86° W 20:17:49 10° N
Cosmos 1455 Rocket 3.1 20:08:47 10° N 20:13:09 72° E 20:17:28 10° SSE
USA 245 3.9 20:08:46 10° SSE 20:13:59 81° WSW 20:18:12 10° NNW
SPOT 5 2.7 20:12:53 10° SSE 20:17:23 73° ENE 20:21:46 10° N
Cosmos 2056 Rocket 4.0 20:13:25 10° S 20:18:26 42° ESE 20:23:32 10° NE
Meteor 2-5 Rocket 3.8 20:13:09 10° S 20:18:34 61° E 20:24:02 10° NNE
Cosmos 1271 Rocket 3.5 20:19:17 10° N 20:23:04 39° ENE 20:26:13 14° SE
Cosmos 1300 4.0 20:20:59 10° NNW 20:24:31 38° W 20:28:01 10° SSW
Cosmos 1025 Rocket 3.0 20:21:01 10° S 20:25:14 66° E 20:29:30 10° NNE
Cosmos 676 Rocket 4.4 20:23:21 10° NNW 20:28:36 55° ENE 20:33:07 14° SE
ERS-1 Rocket 3.0 20:24:37 11° SSE 20:29:30 84° ENE 20:34:34 10° NNW
USA 32 4.2 20:24:31 10° S 20:29:39 60° E 20:34:49 10° NNE
Cosmos 1420 Rocket 4.4 20:25:53 10° S 20:30:47 43° ESE 20:35:45 10° NE
Cosmos 1607 4.2 20:25:46 10° S 20:31:37 45° ESE 20:37:28 10° NE
Cosmos 1140 Rocket 3.9 20:27:51 10° NNW 20:32:59 58° WSW 20:37:57 10° S
Cosmos 1943 4.2 20:32:42 10° SW 20:38:13 51° NW 20:43:44 10° NNE
Cosmos 1536 Rocket 4.4 20:36:40 15° SSE 20:39:37 32° E 20:43:29 10° NNE
CZ-2C R/B 3.7 20:36:27 10° NNE 20:41:06 68° ESE 20:45:37 10° S
Lacrosse 5 2.3 20:38:30 10° NW 20:43:35 60° NNE 20:48:37 10° ESE
Cosmos 2184 Rocket 4.4 20:38:11 10° N 20:44:11 50° ENE 20:49:03 16° SSE
Cosmos 1975 Rocket 3.5 20:41:33 10° SSW 20:45:59 65° WNW 20:50:25 10° N
Helios 1A Rocket 3.4 20:43:49 12° S 20:47:31 54° W 20:51:33 10° NNW
Cosmos 1954 Rocket 4.0 20:44:50 10° NNW 20:50:11 86° ENE 20:54:15 17° SSE
Resurs 01 Rocket 4.2 20:51:17 10° WSW 20:53:46 15° W 20:56:16 10° NW
Lacrosse 4 Rocket 3.9 20:55:05 10° W 20:58:30 25° NW 21:01:55 10° NNE
Tiangong 2.4 20:57:39 10° SW 21:00:12 22° S 21:00:12 22° S
Cosmos 2228 3.7 20:57:51 10° N 21:01:52 40° ENE 21:04:23 20° SE
Cosmos 1544 Rocket 3.8 21:00:02 10° NNW 21:04:19 66° W 21:07:38 16° S
Cosmos 1703 3.8 21:03:35 22° SSE 21:05:37 41° E 21:09:17 10° NNE
Terra 2.3 21:02:52 15° S 21:06:48 57° W 21:11:30 10° NNW
FALCON 9 DEB 3.3 21:04:19 10° WSW 21:07:34 70° NNW 21:10:51 10° ENE
USA 267 3.2 21:01:52 10° NE 21:08:28 83° SE 21:15:01 10° SW
SAR-Lupe-1 4.3 21:05:35 10° NNE 21:09:04 50° E 21:10:55 24° SSE
SL-8 R/B 3.7 21:04:54 10° W 21:09:44 90° S 21:14:36 10° E
Cosmos 1980 Rocket 4.1 21:07:03 10° N 21:11:31 23° NE 21:15:59 10° E
Cosmos 1455 2.7 21:08:22 10° NNW 21:12:05 54° W 21:14:42 18° SSW
Meteor 1-24 Rocket 4.1 21:07:29 10° SSW 21:12:41 58° WNW 21:18:01 10° N
Cosmos 1697 Rocket 3.7 21:11:10 10° NNW 21:16:26 38° NE 21:20:59 13° ESE
NOSS 2-1 (C) 4.0 21:13:30 10° NW 21:17:55 87° SW 21:22:11 20° SE
Cosmos 1452 Rocket 3.9 21:17:03 20° S 21:20:21 47° ESE 21:25:23 10° NNE
RESURS DK-1 3.5 21:16:37 10° NNW 21:20:27 35° NE 21:23:13 16° ESE
ADEOS Rocket 4.4 21:18:38 13° ESE 21:24:20 37° ENE 21:31:07 10° N
ARIANE 5 R/B 3.4 21:23:37 17° SSW 21:26:49 45° W 21:31:07 10° NNW
NOSS 2-1 (D) 4.0 21:23:49 10° NW 21:28:18 76° SW 21:32:17 22° SSE
ASTEX 1 3.7 21:24:23 10° NNE 21:29:19 53° E 21:32:06 24° SSE
Lacrosse 5 rocket 1.5 21:26:11 10° WNW 21:29:59 53° SW 21:31:47 29° SSE
Cosmos 2084 3.0 21:27:13 10° SW 21:31:03 81° SE 21:34:57 10° NE
Meteor 2-1 Rocket 4.4 21:25:46 10° N 21:31:15 62° ENE 21:34:38 23° SSE
Cosmos 2058 Rocket 4.3 21:33:19 10° N 21:37:12 30° ENE 21:39:28 19° ESE
Cosmos 2074 Rocket 4.2 21:31:14 10° NNW 21:37:29 68° W 21:42:02 19° S
ATLAS 2AS CENTAUR R/B 2.9 21:33:40 10° NW 21:40:39 60° WSW 21:44:52 23° SSE
USA 234 3.3 21:38:52 21° SE 21:43:26 63° SW 21:49:57 10° WNW
GP-B 3.4 21:39:17 10° N 21:43:38 52° E 21:45:40 28° SSE
Cosmos 1656 3.6 21:38:13 10° NNW 21:43:42 78° WSW 21:46:54 26° SSE
Cosmos 1892 Rocket 4.3 21:45:13 27° SE 21:47:00 40° E 21:51:08 10° NNE
Cosmos 1833 Rocket 3.1 21:44:37 25° SSE 21:47:27 44° ESE 21:52:46 10° NE
Cosmos 2154 Rocket 4.2 21:50:37 10° NNW 21:56:50 69° W 22:00:52 23° S
Nadezhda 1 Rocket 4.0 21:54:38 20° SSW 21:59:02 81° W 22:05:09 10° N
Cosmos 2082 Rocket 3.4 21:59:43 21° SE 22:01:38 26° ESE 22:06:14 10° NE
Cosmos 1741 Rocket 4.2 21:59:00 10° NNW 22:04:17 67° WSW 22:07:02 28° S
Cosmos 2344 4.3 22:00:55 10° NW 22:09:42 84° NE 22:20:43 14° SE
Cosmos 1606 Rocket 4.3 22:21:29 10° NNW 22:25:35 43° W 22:27:26 27° SW
Cosmos 968 Rocket 3.7 22:20:29 10° NNW 22:25:40 66° ENE 22:28:29 27° SE
H-2A R/B 3.4 22:21:30 10° NNE 22:25:43 73° ESE 22:27:16 38° S
Lacrosse 5 2.5 22:21:43 10° WNW 22:26:26 38° SW 22:27:55 31° SSW
COSMOS 2406 3.4 22:25:00 29° S 22:27:45 55° ESE 22:33:22 10° NE
Cosmos 1633 4.3 22:30:47 18° ESE 22:31:22 19° E 22:33:52 10° NE
Meteor 1-11 4.2 22:30:33 29° S 22:33:35 85° E 22:39:12 10° NNE
SL-8 Rocket 4.0 22:29:47 10° N 22:36:06 85° W 22:39:30 29° S
Cosmos 2369 3.7 22:32:13 10° NNW 22:37:59 83° ENE 22:41:14 27° SSE
SJ 16-02 3.9 22:36:28 10° NNE 22:39:13 16° NE 22:41:58 10° E
Cosmos 2218 Rocket 4.0 22:33:16 10° N 22:39:43 87° E 22:43:17 29° S
Cosmos 2341 Rocket 4.2 22:35:16 10° NNW 22:41:35 67° W 22:45:04 28° SSW
SL-16 R/B 3.9 22:38:17 10° NNW 22:43:13 29° NE 22:48:07 10° ESE
Cosmos 1408 2.6 22:43:34 45° SW 22:44:26 64° W 22:47:52 10° N
Cosmos 1825 2.3 22:46:54 45° SSE 22:47:46 60° E 22:51:29 10° NNE
ALOS 2 2.9 22:46:37 35° SSW 22:48:12 55° W 22:52:32 10° NNW
Cosmos 2366 rocket 4.0 22:43:01 10° N 22:49:20 82° W 22:52:47 29° S
USA 267 4.2 22:44:58 10° ENE 22:51:15 51° NNW 22:57:31 10° W
Cosmos 1900 4.4 22:46:10 10° NW 22:51:20 70° WSW 22:53:35 33° SSE
Cosmos 1867 4.0 22:46:19 10° NW 22:51:45 61° NE 22:56:07 16° SE
SL-8 R/B 3.6 22:47:28 10° W 22:52:17 72° SSW 22:57:05 10° ESE
Cosmos 967 Rocket 4.5 22:51:24 22° SSW 22:55:51 86° ESE 23:02:22 10° NE
Cosmos 1980 Rocket 2.1 22:50:31 10° NNW 22:56:16 83° WSW 22:59:14 30° SSE
Cosmos 807 4.5 22:54:22 10° N 22:58:08 70° E 22:58:47 52° SE
RESURS DK-1 3.6 22:54:48 10° NW 22:58:19 27° WSW 22:59:03 26° SW
Cosmos 1697 Rocket 3.3 22:55:12 10° NW 23:00:27 42° WSW 23:02:42 29° SSW
Cosmos 1812 Rocket 3.9 22:57:33 10° N 23:02:00 61° ENE 23:03:53 33° SE
Cosmos 1992 Rocket 4.5 23:01:48 31° SSE 23:03:50 47° ESE 23:08:51 10° NNE
Cosmos 1892 3.5 23:06:34 30° WSW 23:07:51 42° WNW 23:11:27 10° N
ERS-2 2.1 23:04:52 10° N 23:08:27 72° WNW 23:09:26 45° SW
ADEOS Rocket 3.7 23:05:35 27° SSW 23:09:29 56° W 23:16:53 10° NNW
Cosmos 2058 4.5 23:08:17 21° ESE 23:09:48 26° E 23:13:18 10° NNE
USA 276 1.9 23:10:14 43° W 23:11:02 77° NNW 23:13:57 10° ENE
In-Cosmos 22 Rocket 4.3 23:08:21 29° SSW 23:11:21 72° WNW 23:16:54 10° N
Cosmos 2084 Rocket 3.1 23:07:41 10° NW 23:11:36 89° SW 23:13:11 36° SE
Cosmos 2058 Rocket 4.3 23:11:19 10° NNW 23:15:09 30° W 23:16:43 24° SW
Cosmos 1602 Rocket 3.5 23:15:24 40° S 23:16:55 78° E 23:21:15 10° NNE
Cosmos 2181 Rocket 4.3 23:15:18 24° SSW 23:18:56 57° WNW 23:25:03 10° N
Aureole 1 Rocket 4.4 23:12:48 10° NNW 23:19:20 79° ENE 23:25:14 20° SSE
Cosmos 1302 Rocket 4.4 23:21:10 24° SW 23:24:14 59° WNW 23:29:24 10° NNE
Cosmos 2278 3.7 23:18:31 10° NNW 23:24:17 84° WSW 23:27:31 27° SSE
Cosmos 2322 Rocket 3.4 23:20:06 10° NNW 23:25:26 40° NE 23:30:45 10° ESE
SL-19 R/B 4.3 23:26:15 40° SE 23:27:18 64° ENE 23:31:04 10° N
Cosmos 1934 Rocket 4.4 23:24:52 10° N 23:30:50 55° ENE 23:34:59 20° SSE
CRYOSAT 2 4.4 23:29:07 32° SSE 23:31:26 78° E 23:36:21 10° N
Cosmos 1833 Rocket 4.0 23:26:20 10° WSW 23:31:29 36° NW 23:36:41 10° NNE
CZ-2D R/B 4.0 23:31:55 10° NE 23:35:34 19° E 23:38:50 11° SE
Geosat 3.9 23:35:56 27° SSE 23:38:43 81° WSW 23:43:47 10° NNW
Cosmos 1626 Rocket 4.5 23:42:03 25° SW 23:43:56 38° WNW 23:48:00 10° N
Cosmos 2082 Rocket 2.6 23:41:31 21° SW 23:45:19 59° WNW 23:50:59 10° NNE
Cosmos 1821 Rocket 4.2 23:41:22 10° NNW 23:47:35 62° W 23:50:56 28° SSW
ATLAS 5 CENTAUR R/B 1.7 23:51:03 38° SSE 23:51:54 44° ESE 23:55:51 10° NE
Cosmos 1238 4.2 23:52:31 53° SW 23:53:00 64° W 23:56:01 10° N
